OAKBOAJL

Guest
Details From OAKB - Kabul Intl
To OAJL - JALALABAD
Flight Number -
Tags decoded
Created
Modified
Stats Distance 65 nm / 120 km
Max Altitude 0 ft / 0 m
Waypoints 4
Social Downloads 0
Likes 0
Share VATSIM

Download

Looking for another format? Having issues loading an existing format? Contact us
Advertisement - Login to hide

Notes

Requested: OAKB LEELO LANNI OAJL KOTAL MATAR OAJL

Route

OAKB LEELO LANNI OAJL

ID Type Via Altitude Latitude Longitude Leg Dist Tot Dist Heading (true) Name
O OAKB APT - 0 ft / 0 m 34.56587˚ 69.21229˚ - 0 nm - Kabul Intl
LEELO FIX - 0 ft / 0 m 34.47705˚ 69.55490˚ 17 nm 17 nm 107° / 108° -
LANNI FIX - 0 ft / 0 m 34.43128˚ 69.83779˚ 14 nm 32 nm 101° / 101° -
O OAJL APT - 0 ft / 0 m 34.39984˚ 70.49863˚ 32 nm 64 nm 93° / 93° JALALABAD

Altitude Profile

Advertisement - Login to hide

OAKB

Details ICAO OAKB (KBL)
Name Kabul Intl
Region Afghanistan
Timezone Asia/Kabul (UTC+4.5)
Stats Elevation 5,877 ft / 1,791 m (AMSL)
Location 34.565875° 69.212289°
Runways 1
Magnetic Variation 3.189° E

METAR

OAKB 212250Z VRB02KT CAVOK 09/06 Q1021 NOSIG RMK A3017 BLU BLU

Decode

TAF

Not found

Departure Runways

ID Width Length Bearing (true) Bearing (mag) Surface Threshold Offset Overrun Length
11 164 ft / 50 m 11,483 ft / 3,500 m 107.39° 104.20° Asphalt 0 ft / 0 m 144 ft / 44 m
29 164 ft / 50 m 11,483 ft / 3,500 m 287.41° 284.22° Asphalt 0 ft / 0 m 190 ft / 58 m

OAJL

Details ICAO OAJL (JAA)
Name JALALABAD
Region Afghanistan
Timezone Asia/Kabul (UTC+4.5)
Stats Elevation 1,814 ft / 553 m (AMSL)
Location 34.399840° 70.498625°
Runways 1
Magnetic Variation 3.048° E

METAR

OAJL 212255Z 27002KT 9999 CLR 20/08 A2995 RMK AO2A SLPNO T01990080

Decode

TAF

TAF OAJL 211600Z 2116/2222 32009KT 9999 SCT120 QNH2994INS BECMG 2205/2206 29009KT 9999 FEW100 QNH2987INS TX32/2210Z TN21/2202Z

Decode

Destination Runways

ID Width Length Bearing (true) Bearing (mag) Surface Threshold Offset Overrun Length
13 148 ft / 45 m 7,263 ft / 2,214 m 131.57° 128.52° Asphalt 0 ft / 0 m 0 ft / 0 m
31 148 ft / 45 m 7,263 ft / 2,214 m 311.58° 308.53° Asphalt 0 ft / 0 m 0 ft / 0 m

Popular Alternatives